Time,TemperatureF,DewpointF,PressureIn,WindDirection,WindDirectionDegrees,WindSpeedMPH,WindSpeedGustMPH,Humidity,HourlyPrecipIn,Conditions,Clouds,dailyrainin,SoftwareType,DateUTC
2013-04-13 00:00:00,32.4,31.1,29.69,WNW,285,0.0,1.0,95,0.00,,,0.01,meteohub,2013-04-13 04:00:00,
2013-04-13 00:05:00,32.4,31.1,29.69,WNW,285,0.0,1.0,95,0.00,,,0.01,meteohub,2013-04-13 04:05:00,
2013-04-13 00:10:00,32.4,31.1,29.70,WNW,285,0.0,1.0,95,0.00,,,0.01,meteohub,2013-04-13 04:10:00,
2013-04-13 00:15:00,32.4,31.1,29.70,WNW,285,0.0,1.0,95,0.00,,,0.01,meteohub,2013-04-13 04:15:00,
2013-04-13 00:20:00,32.2,30.9,29.70,WNW,285,0.0,0.0,95,0.00,,,0.01,meteohub,2013-04-13 04:20:00,
2013-04-13 00:25:00,32.4,31.1,29.70,WNW,285,0.0,0.0,95,0.00,,,0.01,meteohub,2013-04-13 04:25:00,
2013-04-13 00:30:00,32.4,31.1,29.70,WNW,285,0.0,0.0,95,0.00,,,0.01,meteohub,2013-04-13 04:30:00,
2013-04-13 00:35:00,32.4,31.1,29.70,WNW,285,0.0,0.0,95,0.00,,,0.01,meteohub,2013-04-13 04:35:00,
2013-04-13 00:40:00,32.4,31.1,29.70,WNW,284,0.0,0.0,95,0.00,,,0.01,meteohub,2013-04-13 04:40:00,
2013-04-13 00:45:00,32.4,31.1,29.70,WNW,285,0.0,0.0,95,0.00,,,0.01,meteohub,2013-04-13 04:45:00,
2013-04-13 00:50:00,32.4,31.1,29.70,WNW,285,0.0,0.0,95,0.00,,,0.01,meteohub,2013-04-13 04:50:00,
2013-04-13 00:55:00,32.4,31.1,29.70,WNW,285,0.0,0.0,95,0.00,,,0.01,meteohub,2013-04-13 04:55:00,
2013-04-13 01:00:00,32.4,31.1,29.70,WNW,285,0.0,0.0,95,0.00,,,0.01,meteohub,2013-04-13 05:00:00,
2013-04-13 01:05:00,32.4,31.1,29.70,WNW,285,0.0,0.0,95,0.00,,,0.01,meteohub,2013-04-13 05:05:00,
2013-04-13 01:10:00,32.4,31.1,29.70,WNW,285,0.0,0.0,95,0.00,,,0.01,meteohub,2013-04-13 05:10:00,
2013-04-13 01:15:00,32.5,31.5,29.70,WNW,285,0.0,0.0,96,0.00,,,0.01,meteohub,2013-04-13 05:15:00,
2013-04-13 01:20:00,32.5,31.5,29.70,WNW,285,0.0,0.0,96,0.00,,,0.01,meteohub,2013-04-13 05:20:00,
2013-04-13 01:25:00,32.5,31.5,29.70,West,276,0.0,0.0,96,0.00,,,0.01,meteohub,2013-04-13 05:25:00,
2013-04-13 01:30:00,32.5,31.5,29.70,West,276,0.0,0.0,96,0.00,,,0.01,meteohub,2013-04-13 05:30:00,
2013-04-13 01:36:00,32.5,31.5,29.70,WNW,302,0.0,1.0,96,0.00,,,0.01,meteohub,2013-04-13 05:36:00,
2013-04-13 01:40:00,32.7,31.6,29.70,SSE,152,2.0,2.0,96,0.00,,,0.01,meteohub,2013-04-13 05:40:00,
2013-04-13 01:45:00,32.9,31.8,29.70,South,182,0.0,2.0,96,0.00,,,0.01,meteohub,2013-04-13 05:45:00,
2013-04-13 01:51:00,33.1,32.0,29.70,NNE,29,0.0,2.0,96,0.00,,,0.01,meteohub,2013-04-13 05:51:00,
2013-04-13 01:56:00,33.1,32.0,29.70,NNE,31,0.0,2.0,96,0.00,,,0.01,meteohub,2013-04-13 05:56:00,
2013-04-13 02:01:00,33.1,32.0,29.70,NE,36,0.0,2.0,96,0.00,,,0.01,meteohub,2013-04-13 06:01:00,
2013-04-13 02:06:00,33.1,32.0,29.70,SSW,207,0.0,2.0,96,0.00,,,0.01,meteohub,2013-04-13 06:06:00,
2013-04-13 02:11:00,33.3,32.0,29.69,SSW,212,0.0,2.0,95,0.00,,,0.01,meteohub,2013-04-13 06:11:00,
2013-04-13 02:16:00,33.3,32.0,29.70,WSW,244,0.0,3.0,95,0.00,,,0.01,meteohub,2013-04-13 06:16:00,
2013-04-13 02:21:00,33.3,32.0,29.70,SW,219,3.0,4.0,95,0.00,,,0.01,meteohub,2013-04-13 06:21:00,
2013-04-13 02:26:00,33.3,32.0,29.70,WSW,254,0.0,4.0,95,0.00,,,0.01,meteohub,2013-04-13 06:26:00,
2013-04-13 02:31:00,33.3,31.6,29.70,ENE,75,0.0,4.0,94,0.00,,,0.01,meteohub,2013-04-13 06:31:00,
2013-04-13 02:36:00,33.3,31.6,29.70,WSW,237,1.0,4.0,94,0.00,,,0.01,meteohub,2013-04-13 06:36:00,
2013-04-13 02:42:00,33.3,31.6,29.70,NW,306,0.0,4.0,94,0.00,,,0.01,meteohub,2013-04-13 06:42:00,
2013-04-13 02:47:00,33.1,31.5,29.70,WNW,293,1.0,2.0,94,0.00,,,0.01,meteohub,2013-04-13 06:47:00,
2013-04-13 02:52:00,33.1,31.5,29.70,NNE,32,1.0,4.0,94,0.00,,,0.01,meteohub,2013-04-13 06:52:00,
2013-04-13 02:57:00,33.1,31.5,29.70,SSE,157,0.0,4.0,94,0.00,,,0.01,meteohub,2013-04-13 06:57:00,
2013-04-13 03:02:00,33.1,31.3,29.71,WNW,302,0.0,4.0,93,0.00,,,0.01,meteohub,2013-04-13 07:02:00,
2013-04-13 03:07:00,33.1,31.3,29.70,West,280,0.0,3.0,93,0.00,,,0.01,meteohub,2013-04-13 07:07:00,
2013-04-13 03:12:00,32.9,31.1,29.70,NW,326,2.0,2.0,93,0.00,,,0.01,meteohub,2013-04-13 07:12:00,
2013-04-13 03:17:00,32.9,31.1,29.70,NW,326,2.0,4.0,93,0.00,,,0.01,meteohub,2013-04-13 07:17:00,
2013-04-13 03:23:00,32.7,30.9,29.71,SW,230,0.0,5.0,93,0.00,,,0.01,meteohub,2013-04-13 07:23:00,
2013-04-13 03:28:00,32.7,30.7,29.71,West,261,2.0,5.0,92,0.00,,,0.01,meteohub,2013-04-13 07:28:00,
2013-04-13 03:33:00,32.7,30.7,29.71,NNE,13,3.0,5.0,92,0.00,,,0.01,meteohub,2013-04-13 07:33:00,
2013-04-13 03:38:00,32.5,30.6,29.71,West,267,1.0,4.0,92,0.00,,,0.01,meteohub,2013-04-13 07:38:00,
2013-04-13 03:43:00,32.5,30.6,29.71,South,184,2.0,4.0,92,0.00,,,0.01,meteohub,2013-04-13 07:43:00,
2013-04-13 03:48:00,32.5,30.6,29.71,SW,214,0.0,4.0,92,0.00,,,0.01,meteohub,2013-04-13 07:48:00,
2013-04-13 03:53:00,32.5,30.6,29.71,South,188,1.0,5.0,92,0.00,,,0.01,meteohub,2013-04-13 07:53:00,
2013-04-13 03:58:00,32.5,30.6,29.71,South,174,1.0,5.0,92,0.00,,,0.01,meteohub,2013-04-13 07:58:00,
2013-04-13 04:04:00,32.5,30.6,29.71,SW,233,1.0,3.0,92,0.00,,,0.01,meteohub,2013-04-13 08:04:00,
2013-04-13 04:09:00,32.5,30.7,29.71,SSE,167,0.0,3.0,93,0.00,,,0.01,meteohub,2013-04-13 08:09:00,
2013-04-13 04:14:00,32.4,30.6,29.71,SSW,212,1.0,3.0,93,0.00,,,0.01,meteohub,2013-04-13 08:14:00,
2013-04-13 04:20:00,32.4,30.6,29.71,West,262,2.0,2.0,93,0.00,,,0.01,meteohub,2013-04-13 08:20:00,
2013-04-13 04:25:00,32.4,30.6,29.71,SW,216,0.0,3.0,93,0.00,,,0.01,meteohub,2013-04-13 08:25:00,
2013-04-13 04:30:00,32.4,30.4,29.71,ENE,64,0.0,3.0,92,0.00,,,0.01,meteohub,2013-04-13 08:30:00,
2013-04-13 04:35:00,32.4,30.4,29.72,SSW,207,3.0,3.0,92,0.00,,,0.01,meteohub,2013-04-13 08:35:00,
2013-04-13 04:40:00,32.4,30.4,29.71,WNW,294,1.0,3.0,92,0.00,,,0.01,meteohub,2013-04-13 08:40:00,
2013-04-13 04:45:00,32.4,30.4,29.72,West,259,1.0,4.0,92,0.00,,,0.01,meteohub,2013-04-13 08:45:00,
2013-04-13 04:51:00,32.4,30.4,29.72,SW,231,0.0,4.0,92,0.00,,,0.01,meteohub,2013-04-13 08:51:00,
2013-04-13 04:56:00,32.4,30.4,29.72,NW,323,0.0,5.0,92,0.00,,,0.01,meteohub,2013-04-13 08:56:00,
2013-04-13 05:01:00,32.2,30.2,29.72,NNE,29,2.0,5.0,92,0.00,,,0.01,meteohub,2013-04-13 09:01:00,
2013-04-13 05:07:00,32.2,30.2,29.72,West,279,0.0,5.0,92,0.00,,,0.01,meteohub,2013-04-13 09:07:00,
2013-04-13 05:12:00,31.8,29.8,29.72,WSW,258,2.0,3.0,92,0.00,,,0.01,meteohub,2013-04-13 09:12:00,
2013-04-13 05:17:00,32.0,30.0,29.72,SSW,204,0.0,5.0,92,0.00,,,0.01,meteohub,2013-04-13 09:17:00,
2013-04-13 05:22:00,32.0,30.0,29.72,NNW,342,0.0,5.0,92,0.00,,,0.01,meteohub,2013-04-13 09:22:00,
2013-04-13 05:27:00,31.8,29.8,29.72,WSW,252,0.0,5.0,92,0.00,,,0.01,meteohub,2013-04-13 09:27:00,
2013-04-13 05:33:00,31.8,29.8,29.71,WNW,283,0.0,4.0,92,0.00,,,0.01,meteohub,2013-04-13 09:33:00,
2013-04-13 05:38:00,31.8,29.8,29.71,WSW,240,1.0,4.0,92,0.00,,,0.01,meteohub,2013-04-13 09:38:00,
2013-04-13 05:43:00,31.8,29.8,29.71,South,189,0.0,4.0,92,0.00,,,0.01,meteohub,2013-04-13 09:43:00,
2013-04-13 05:49:00,31.8,29.8,29.71,SSE,160,0.0,3.0,92,0.00,,,0.01,meteohub,2013-04-13 09:49:00,
2013-04-13 05:54:00,31.8,29.5,29.72,WSW,242,1.0,3.0,91,0.00,,,0.01,meteohub,2013-04-13 09:54:00,
2013-04-13 05:59:00,31.6,29.3,29.72,SW,219,0.0,3.0,91,0.00,,,0.01,meteohub,2013-04-13 09:59:00,
2013-04-13 06:04:00,31.8,29.8,29.72,SSW,212,0.0,3.0,92,0.00,,,0.01,meteohub,2013-04-13 10:04:00,
2013-04-13 06:09:00,31.8,29.5,29.72,WSW,251,0.0,2.0,91,0.00,,,0.01,meteohub,2013-04-13 10:09:00,
2013-04-13 06:14:00,31.8,29.8,29.72,SW,236,0.0,2.0,92,0.00,,,0.01,meteohub,2013-04-13 10:14:00,
2013-04-13 06:19:00,31.8,29.5,29.72,ENE,74,0.0,2.0,91,0.00,,,0.01,meteohub,2013-04-13 10:19:00,
2013-04-13 06:24:00,31.6,29.7,29.72,ESE,109,0.0,3.0,92,0.00,,,0.01,meteohub,2013-04-13 10:24:00,
2013-04-13 06:30:00,31.6,29.7,29.72,ESE,110,0.0,3.0,92,0.00,,,0.01,meteohub,2013-04-13 10:30:00,
2013-04-13 06:35:00,31.6,29.7,29.71,SSE,162,1.0,1.0,92,0.00,,,0.01,meteohub,2013-04-13 10:35:00,
2013-04-13 06:40:00,31.5,29.7,29.71,NNE,27,1.0,2.0,93,0.00,,,0.01,meteohub,2013-04-13 10:40:00,
2013-04-13 06:45:00,31.6,29.8,29.71,NE,41,0.0,2.0,93,0.00,,,0.01,meteohub,2013-04-13 10:45:00,
2013-04-13 06:50:00,31.5,29.7,29.71,SSW,196,0.0,2.0,93,0.00,,,0.01,meteohub,2013-04-13 10:50:00,
2013-04-13 06:55:00,31.5,29.7,29.71,SSW,196,0.0,2.0,93,0.00,,,0.01,meteohub,2013-04-13 10:55:00,
2013-04-13 07:00:00,31.5,29.7,29.72,West,280,1.0,2.0,93,0.00,,,0.01,meteohub,2013-04-13 11:00:00,
2013-04-13 07:05:00,31.5,29.7,29.72,ESE,103,0.0,1.0,93,0.00,,,0.01,meteohub,2013-04-13 11:05:00,
2013-04-13 07:10:00,31.6,29.8,29.72,ESE,103,0.0,1.0,93,0.00,,,0.01,meteohub,2013-04-13 11:10:00,
2013-04-13 07:16:00,31.6,29.8,29.72,East,84,0.0,2.0,93,0.00,,,0.01,meteohub,2013-04-13 11:16:00,
2013-04-13 07:22:00,31.6,29.8,29.72,East,84,0.0,2.0,93,0.00,,,0.01,meteohub,2013-04-13 11:22:00,
2013-04-13 07:27:00,31.6,29.8,29.72,East,84,0.0,2.0,93,0.00,,,0.01,meteohub,2013-04-13 11:27:00,
2013-04-13 07:32:00,31.6,29.8,29.72,ESE,115,0.0,0.0,93,0.00,,,0.01,meteohub,2013-04-13 11:32:00,
2013-04-13 07:37:00,31.8,30.0,29.72,ESE,110,0.0,1.0,93,0.00,,,0.01,meteohub,2013-04-13 11:37:00,
2013-04-13 07:42:00,31.8,30.0,29.72,ESE,110,0.0,1.0,93,0.00,,,0.01,meteohub,2013-04-13 11:42:00,
2013-04-13 07:47:00,31.6,29.8,29.72,North,3,1.0,1.0,93,0.00,,,0.01,meteohub,2013-04-13 11:47:00,
2013-04-13 07:53:00,31.8,30.0,29.72,SW,223,0.0,2.0,93,0.00,,,0.01,meteohub,2013-04-13 11:53:00,
2013-04-13 07:58:00,31.8,30.4,29.72,SW,223,0.0,2.0,94,0.00,,,0.01,meteohub,2013-04-13 11:58:00,
2013-04-13 08:04:00,32.0,30.6,29.72,SW,215,0.0,2.0,94,0.00,,,0.01,meteohub,2013-04-13 12:04:00,
2013-04-13 08:09:00,32.2,30.6,29.72,SE,140,0.0,1.0,94,0.00,,,0.01,meteohub,2013-04-13 12:09:00,
2013-04-13 08:14:00,32.4,30.7,29.72,SE,143,0.0,1.0,94,0.00,,,0.01,meteohub,2013-04-13 12:14:00,
2013-04-13 08:19:00,32.4,30.6,29.72,NE,43,1.0,1.0,93,0.00,,,0.01,meteohub,2013-04-13 12:19:00,
2013-04-13 08:24:00,32.4,30.4,29.72,West,276,1.0,1.0,92,0.00,,,0.01,meteohub,2013-04-13 12:24:00,
2013-04-13 08:29:00,32.5,30.6,29.72,West,278,0.0,1.0,92,0.00,,,0.01,meteohub,2013-04-13 12:29:00,
2013-04-13 08:34:00,32.7,30.7,29.72,West,278,0.0,2.0,92,0.00,,,0.01,meteohub,2013-04-13 12:34:00,
2013-04-13 08:39:00,32.7,30.7,29.72,NE,53,1.0,2.0,92,0.00,,,0.01,meteohub,2013-04-13 12:39:00,
2013-04-13 08:44:00,32.7,30.7,29.72,South,182,0.0,1.0,92,0.00,,,0.01,meteohub,2013-04-13 12:44:00,
2013-04-13 08:49:00,32.9,30.9,29.72,SSE,164,0.0,1.0,92,0.00,,,0.01,meteohub,2013-04-13 12:49:00,
2013-04-13 08:54:00,33.1,31.1,29.72,East,100,0.0,1.0,92,0.00,,,0.01,meteohub,2013-04-13 12:54:00,
2013-04-13 08:59:00,33.1,31.1,29.72,ENE,78,0.0,0.0,92,0.00,,,0.01,meteohub,2013-04-13 12:59:00,
2013-04-13 09:04:00,33.3,31.1,29.72,SSW,192,1.0,1.0,92,0.00,,,0.01,meteohub,2013-04-13 13:04:00,
2013-04-13 09:09:00,33.3,31.1,29.72,East,99,0.0,2.0,92,0.00,,,0.01,meteohub,2013-04-13 13:09:00,
2013-04-13 09:15:00,33.3,31.1,29.72,ENE,61,1.0,2.0,92,0.00,,,0.01,meteohub,2013-04-13 13:15:00,
2013-04-13 09:20:00,33.4,31.3,29.72,South,190,0.0,3.0,92,0.00,,,0.01,meteohub,2013-04-13 13:20:00,
2013-04-13 09:25:00,33.6,31.5,29.71,SE,140,1.0,3.0,92,0.00,,,0.01,meteohub,2013-04-13 13:25:00,
2013-04-13 09:31:00,33.6,31.3,29.71,NE,54,0.0,3.0,91,0.00,,,0.01,meteohub,2013-04-13 13:31:00,
2013-04-13 09:36:00,34.0,31.6,29.71,SSE,160,0.0,3.0,91,0.00,,,0.01,meteohub,2013-04-13 13:36:00,
2013-04-13 09:42:00,34.3,31.6,29.71,SW,215,0.0,3.0,90,0.01,,,0.02,meteohub,2013-04-13 13:42:00,
2013-04-13 09:47:00,34.3,31.6,29.70,ESE,110,0.0,3.0,90,0.01,,,0.02,meteohub,2013-04-13 13:47:00,
2013-04-13 09:52:00,34.7,32.0,29.70,South,178,0.0,3.0,90,0.01,,,0.02,meteohub,2013-04-13 13:52:00,
2013-04-13 09:57:00,34.9,31.6,29.70,South,171,0.0,2.0,88,0.01,,,0.02,meteohub,2013-04-13 13:57:00,
2013-04-13 10:03:00,34.7,31.5,29.70,SSE,165,0.0,4.0,88,0.01,,,0.02,meteohub,2013-04-13 14:03:00,
2013-04-13 10:08:00,34.9,31.6,29.70,SSW,199,1.0,4.0,88,0.01,,,0.02,meteohub,2013-04-13 14:08:00,
2013-04-13 10:13:00,34.9,31.6,29.70,SSW,206,2.0,4.0,88,0.01,,,0.02,meteohub,2013-04-13 14:13:00,
2013-04-13 10:18:00,34.9,32.0,29.70,South,181,1.0,4.0,89,0.01,,,0.02,meteohub,2013-04-13 14:18:00,
2013-04-13 10:23:00,34.9,32.0,29.70,SW,223,1.0,4.0,89,0.02,,,0.03,meteohub,2013-04-13 14:23:00,
2013-04-13 10:28:00,35.1,31.8,29.70,SSW,206,2.0,4.0,88,0.02,,,0.03,meteohub,2013-04-13 14:28:00,
2013-04-13 10:33:00,35.1,31.8,29.70,WSW,247,1.0,6.0,88,0.02,,,0.03,meteohub,2013-04-13 14:33:00,
2013-04-13 10:38:00,35.2,32.4,29.70,ENE,70,1.0,6.0,89,0.02,,,0.03,meteohub,2013-04-13 14:38:00,
2013-04-13 10:43:00,35.8,32.5,29.70,SW,236,2.0,6.0,88,0.01,,,0.03,meteohub,2013-04-13 14:43:00,
2013-04-13 10:48:00,35.8,32.4,29.70,South,175,3.0,5.0,87,0.02,,,0.04,meteohub,2013-04-13 14:48:00,
2013-04-13 10:54:00,36.1,33.3,29.70,SW,230,0.0,6.0,89,0.02,,,0.04,meteohub,2013-04-13 14:54:00,
2013-04-13 10:59:00,36.1,32.4,29.70,SSE,155,1.0,6.0,86,0.02,,,0.04,meteohub,2013-04-13 14:59:00,
2013-04-13 11:04:00,36.1,32.7,29.70,ESE,102,1.0,6.0,87,0.02,,,0.04,meteohub,2013-04-13 15:04:00,
2013-04-13 11:09:00,36.1,32.7,29.70,SW,226,2.0,6.0,87,0.03,,,0.05,meteohub,2013-04-13 15:09:00,
2013-04-13 11:14:00,36.3,32.5,29.70,East,96,1.0,6.0,86,0.03,,,0.05,meteohub,2013-04-13 15:14:00,
2013-04-13 11:19:00,36.3,32.5,29.70,SSW,206,2.0,6.0,86,0.02,,,0.05,meteohub,2013-04-13 15:19:00,
2013-04-13 11:24:00,36.1,32.4,29.70,East,89,0.0,4.0,86,0.03,,,0.06,meteohub,2013-04-13 15:24:00,
2013-04-13 11:29:00,36.0,32.5,29.70,NNE,17,2.0,5.0,87,0.03,,,0.06,meteohub,2013-04-13 15:29:00,
2013-04-13 11:34:00,35.8,32.4,29.70,SSW,209,1.0,5.0,87,0.03,,,0.06,meteohub,2013-04-13 15:34:00,
2013-04-13 11:39:00,35.6,32.2,29.70,South,176,0.0,5.0,87,0.03,,,0.06,meteohub,2013-04-13 15:39:00,
2013-04-13 11:44:00,35.6,32.7,29.70,WSW,257,0.0,6.0,89,0.04,,,0.07,meteohub,2013-04-13 15:44:00,
2013-04-13 11:50:00,36.0,33.1,29.70,East,86,0.0,6.0,89,0.03,,,0.07,meteohub,2013-04-13 15:50:00,
2013-04-13 11:55:00,36.3,33.4,29.70,SSW,192,1.0,6.0,89,0.03,,,0.07,meteohub,2013-04-13 15:55:00,
2013-04-13 12:00:00,36.7,33.8,29.70,NNE,29,2.0,5.0,89,0.03,,,0.08,meteohub,2013-04-13 16:00:00,
2013-04-13 12:05:00,36.9,33.4,29.71,WSW,238,2.0,5.0,87,0.03,,,0.08,meteohub,2013-04-13 16:05:00,
2013-04-13 12:10:00,36.5,33.1,29.70,SW,227,3.0,7.0,87,0.04,,,0.09,meteohub,2013-04-13 16:10:00,
2013-04-13 12:15:00,36.9,34.0,29.70,SSE,157,0.0,7.0,89,0.03,,,0.09,meteohub,2013-04-13 16:15:00,
2013-04-13 12:21:00,37.0,33.3,29.71,SSE,150,2.0,7.0,86,0.03,,,0.09,meteohub,2013-04-13 16:21:00,
2013-04-13 12:26:00,37.2,33.8,29.70,SSE,164,1.0,6.0,87,0.04,,,0.10,meteohub,2013-04-13 16:26:00,
2013-04-13 12:31:00,37.0,32.9,29.70,NNW,344,0.0,6.0,85,0.04,,,0.10,meteohub,2013-04-13 16:31:00,
2013-04-13 12:36:00,37.2,33.8,29.70,SW,233,3.0,6.0,87,0.03,,,0.10,meteohub,2013-04-13 16:36:00,
2013-04-13 12:41:00,37.6,33.8,29.70,NNW,345,2.0,6.0,86,0.04,,,0.11,meteohub,2013-04-13 16:41:00,
2013-04-13 12:47:00,37.9,33.6,29.71,East,95,1.0,5.0,84,0.04,,,0.11,meteohub,2013-04-13 16:47:00,
2013-04-13 12:52:00,37.8,33.6,29.71,North,3,3.0,5.0,85,0.05,,,0.12,meteohub,2013-04-13 16:52:00,
2013-04-13 12:57:00,37.6,33.4,29.71,ESE,116,1.0,7.0,85,0.06,,,0.13,meteohub,2013-04-13 16:57:00,
2013-04-13 13:03:00,37.9,34.7,29.71,SW,218,3.0,7.0,88,0.05,,,0.13,meteohub,2013-04-13 17:03:00,
2013-04-13 13:08:00,37.6,32.5,29.71,WSW,240,3.0,7.0,82,0.06,,,0.14,meteohub,2013-04-13 17:08:00,
2013-04-13 13:13:00,37.0,32.7,29.71,NE,41,0.0,9.0,84,0.05,,,0.14,meteohub,2013-04-13 17:13:00,
2013-04-13 13:18:00,37.0,32.7,29.72,SW,214,6.0,9.0,84,0.06,,,0.15,meteohub,2013-04-13 17:18:00,
2013-04-13 13:23:00,36.7,32.4,29.72,SSW,213,3.0,9.0,84,0.05,,,0.15,meteohub,2013-04-13 17:23:00,
2013-04-13 13:28:00,36.3,32.0,29.72,West,273,9.0,12.0,84,0.05,,,0.15,meteohub,2013-04-13 17:28:00,
2013-04-13 13:33:00,35.1,30.9,29.73,North,349,7.0,12.0,85,0.06,,,0.16,meteohub,2013-04-13 17:33:00,
2013-04-13 13:38:00,34.5,31.1,29.73,West,280,4.0,12.0,87,0.05,,,0.16,meteohub,2013-04-13 17:38:00,
2013-04-13 13:43:00,34.7,31.3,29.73,NNW,340,6.0,12.0,87,0.05,,,0.16,meteohub,2013-04-13 17:43:00,
2013-04-13 13:49:00,35.2,31.8,29.73,WNW,290,2.0,12.0,87,0.04,,,0.16,meteohub,2013-04-13 17:49:00,
2013-04-13 13:54:00,35.4,30.7,29.73,WSW,245,6.0,10.0,83,0.04,,,0.17,meteohub,2013-04-13 17:54:00,
2013-04-13 13:59:00,35.2,31.5,29.73,NNW,348,2.0,9.0,86,0.04,,,0.17,meteohub,2013-04-13 17:59:00,
2013-04-13 14:04:00,35.1,31.3,29.73,WNW,290,6.0,9.0,86,0.04,,,0.17,meteohub,2013-04-13 18:04:00,
2013-04-13 14:09:00,34.9,31.5,29.73,NNW,342,3.0,9.0,87,0.04,,,0.18,meteohub,2013-04-13 18:09:00,
2013-04-13 14:14:00,34.9,31.1,29.74,WNW,288,4.0,8.0,86,0.04,,,0.18,meteohub,2013-04-13 18:14:00,
2013-04-13 14:19:00,34.9,31.5,29.74,North,352,8.0,9.0,87,0.03,,,0.18,meteohub,2013-04-13 18:19:00,
2013-04-13 14:25:00,34.9,31.1,29.74,NW,320,8.0,10.0,86,0.03,,,0.18,meteohub,2013-04-13 18:25:00,
2013-04-13 14:27:00,34.9,30.9,29.74,WNW,283,4.0,10.0,85,0.04,,,0.19,meteohub,2013-04-13 18:27:00,
2013-04-13 14:32:00,34.9,30.6,29.75,NW,312,5.0,10.0,84,0.03,,,0.19,meteohub,2013-04-13 18:32:00,
2013-04-13 14:37:00,35.1,30.7,29.75,West,269,4.0,10.0,84,0.03,,,0.19,meteohub,2013-04-13 18:37:00,
2013-04-13 14:42:00,35.1,30.7,29.75,West,265,4.0,11.0,84,0.03,,,0.19,meteohub,2013-04-13 18:42:00,
2013-04-13 14:47:00,35.1,30.4,29.75,WSW,258,4.0,11.0,83,0.03,,,0.19,meteohub,2013-04-13 18:47:00,
2013-04-13 14:52:00,35.2,29.1,29.75,SW,230,10.0,11.0,78,0.03,,,0.20,meteohub,2013-04-13 18:52:00,
2013-04-13 14:57:00,35.4,28.6,29.75,West,261,2.0,11.0,76,0.03,,,0.20,meteohub,2013-04-13 18:57:00,
2013-04-13 15:03:00,35.8,28.9,29.76,WNW,293,2.0,11.0,76,0.03,,,0.20,meteohub,2013-04-13 19:03:00,
2013-04-13 15:08:00,35.8,28.6,29.76,WSW,240,2.0,11.0,75,0.03,,,0.21,meteohub,2013-04-13 19:08:00,
2013-04-13 15:13:00,35.4,28.2,29.76,WSW,255,3.0,10.0,75,0.03,,,0.21,meteohub,2013-04-13 19:13:00,
2013-04-13 15:18:00,35.6,28.4,29.76,WNW,300,3.0,10.0,75,0.03,,,0.21,meteohub,2013-04-13 19:18:00,
2013-04-13 15:23:00,35.6,28.4,29.76,SW,235,2.0,10.0,75,0.03,,,0.21,meteohub,2013-04-13 19:23:00,
2013-04-13 15:28:00,35.6,28.8,29.77,NW,317,3.0,10.0,76,0.03,,,0.22,meteohub,2013-04-13 19:28:00,
2013-04-13 15:33:00,35.4,28.9,29.77,West,280,4.0,10.0,77,0.03,,,0.22,meteohub,2013-04-13 19:33:00,
2013-04-13 15:38:00,35.4,28.6,29.77,WSW,239,3.0,9.0,76,0.03,,,0.22,meteohub,2013-04-13 19:38:00,
2013-04-13 15:43:00,35.2,29.1,29.77,WNW,283,2.0,10.0,78,0.04,,,0.22,meteohub,2013-04-13 19:43:00,
2013-04-13 15:48:00,35.8,29.7,29.77,SSW,195,5.0,10.0,78,0.03,,,0.23,meteohub,2013-04-13 19:48:00,
2013-04-13 15:53:00,35.4,28.9,29.77,SSE,152,0.0,10.0,77,0.03,,,0.23,meteohub,2013-04-13 19:53:00,
2013-04-13 15:58:00,35.4,28.6,29.78,WNW,297,3.0,9.0,76,0.03,,,0.23,meteohub,2013-04-13 19:58:00,
2013-04-13 16:03:00,35.2,28.4,29.78,SW,233,1.0,9.0,76,0.03,,,0.23,meteohub,2013-04-13 20:03:00,
2013-04-13 16:08:00,35.6,28.8,29.78,SW,217,3.0,8.0,76,0.03,,,0.24,meteohub,2013-04-13 20:08:00,
2013-04-13 16:13:00,35.6,29.1,29.78,WNW,302,1.0,9.0,77,0.03,,,0.24,meteohub,2013-04-13 20:13:00,
2013-04-13 16:18:00,35.8,28.4,29.78,SSW,210,2.0,13.0,74,0.03,,,0.24,meteohub,2013-04-13 20:18:00,
2013-04-13 16:23:00,35.4,27.3,29.78,SW,224,3.0,13.0,72,0.04,,,0.25,meteohub,2013-04-13 20:23:00,
2013-04-13 16:28:00,35.4,27.3,29.78,WSW,238,3.0,12.0,72,0.03,,,0.25,meteohub,2013-04-13 20:28:00,
2013-04-13 16:33:00,35.4,26.6,29.78,SSE,160,2.0,12.0,70,0.03,,,0.25,meteohub,2013-04-13 20:33:00,
2013-04-13 16:38:00,35.4,27.0,29.78,NNW,328,5.0,12.0,71,0.03,,,0.25,meteohub,2013-04-13 20:38:00,
2013-04-13 16:43:00,35.4,27.0,29.79,WSW,241,2.0,12.0,71,0.02,,,0.25,meteohub,2013-04-13 20:43:00,
2013-04-13 16:48:00,36.0,27.9,29.79,WSW,246,6.0,11.0,72,0.03,,,0.26,meteohub,2013-04-13 20:48:00,
2013-04-13 16:53:00,35.4,27.3,29.79,South,185,2.0,11.0,72,0.03,,,0.26,meteohub,2013-04-13 20:53:00,
2013-04-13 16:58:00,35.4,28.0,29.79,SW,216,4.0,11.0,74,0.03,,,0.26,meteohub,2013-04-13 20:58:00,
2013-04-13 17:03:00,35.1,27.7,29.80,SE,136,6.0,11.0,74,0.02,,,0.26,meteohub,2013-04-13 21:03:00,
2013-04-13 17:08:00,35.2,28.8,29.79,NNW,335,4.0,11.0,77,0.02,,,0.26,meteohub,2013-04-13 21:08:00,
2013-04-13 17:13:00,35.2,28.0,29.79,West,280,1.0,11.0,75,0.02,,,0.26,meteohub,2013-04-13 21:13:00,
2013-04-13 17:18:00,35.2,28.0,29.79,SSE,155,1.0,11.0,75,0.02,,,0.26,meteohub,2013-04-13 21:18:00,
2013-04-13 17:23:00,35.2,27.9,29.80,West,270,4.0,6.0,74,0.01,,,0.26,meteohub,2013-04-13 21:23:00,
2013-04-13 17:28:00,35.2,28.0,29.80,North,351,2.0,8.0,75,0.01,,,0.26,meteohub,2013-04-13 21:28:00,
2013-04-13 17:33:00,35.2,27.9,29.80,SW,231,5.0,9.0,74,0.02,,,0.27,meteohub,2013-04-13 21:33:00,
2013-04-13 17:38:00,35.2,27.9,29.81,SSE,148,7.0,9.0,74,0.02,,,0.27,meteohub,2013-04-13 21:38:00,
2013-04-13 17:43:00,35.1,27.3,29.81,SSW,203,8.0,9.0,73,0.02,,,0.27,meteohub,2013-04-13 21:43:00,
2013-04-13 17:48:00,34.9,28.0,29.81,South,190,7.0,12.0,76,0.01,,,0.27,meteohub,2013-04-13 21:48:00,
2013-04-13 17:54:00,34.9,28.8,29.81,SW,224,8.0,12.0,78,0.01,,,0.27,meteohub,2013-04-13 21:54:00,
2013-04-13 17:59:00,34.5,28.8,29.81,NNW,330,2.0,12.0,79,0.01,,,0.27,meteohub,2013-04-13 21:59:00,
2013-04-13 18:04:00,34.5,28.9,29.81,SSW,201,2.0,8.0,80,0.01,,,0.27,meteohub,2013-04-13 22:04:00,
2013-04-13 18:09:00,34.5,28.8,29.82,SW,231,4.0,11.0,79,0.01,,,0.27,meteohub,2013-04-13 22:09:00,
2013-04-13 18:14:00,34.5,28.9,29.82,SSE,160,3.0,11.0,80,0.01,,,0.27,meteohub,2013-04-13 22:14:00,
2013-04-13 18:19:00,34.7,28.9,29.82,East,89,1.0,11.0,79,0.01,,,0.27,meteohub,2013-04-13 22:19:00,
2013-04-13 18:24:00,34.7,28.2,29.82,SW,214,2.0,11.0,77,0.01,,,0.27,meteohub,2013-04-13 22:24:00,
2013-04-13 18:29:00,34.9,28.8,29.82,NNW,342,6.0,13.0,78,0.00,,,0.27,meteohub,2013-04-13 22:29:00,
2013-04-13 18:34:00,34.9,28.8,29.82,SSW,207,11.0,13.0,78,0.00,,,0.27,meteohub,2013-04-13 22:34:00,
2013-04-13 18:39:00,35.1,28.9,29.83,North,10,4.0,11.0,78,0.00,,,0.27,meteohub,2013-04-13 22:39:00,
2013-04-13 18:44:00,35.1,29.1,29.83,SSW,192,4.0,11.0,79,0.00,,,0.27,meteohub,2013-04-13 22:44:00,
2013-04-13 18:49:00,35.2,29.3,29.83,NW,323,1.0,11.0,79,0.01,,,0.28,meteohub,2013-04-13 22:49:00,
2013-04-13 18:54:00,35.2,29.1,29.83,SSW,205,5.0,6.0,78,0.01,,,0.28,meteohub,2013-04-13 22:54:00,
2013-04-13 18:59:00,35.1,29.1,29.83,SSW,205,7.0,10.0,79,0.01,,,0.28,meteohub,2013-04-13 22:59:00,
2013-04-13 19:04:00,35.1,29.1,29.83,SW,235,8.0,12.0,79,0.01,,,0.28,meteohub,2013-04-13 23:04:00,
2013-04-13 19:09:00,34.9,29.1,29.83,SSW,200,5.0,12.0,79,0.01,,,0.28,meteohub,2013-04-13 23:09:00,
2013-04-13 19:14:00,34.9,29.1,29.84,NW,325,4.0,13.0,79,0.01,,,0.28,meteohub,2013-04-13 23:14:00,
2013-04-13 19:19:00,34.9,29.3,29.84,WSW,242,4.0,13.0,80,0.01,,,0.28,meteohub,2013-04-13 23:19:00,
2013-04-13 19:24:00,34.9,29.1,29.84,SW,226,6.0,13.0,79,0.01,,,0.28,meteohub,2013-04-13 23:24:00,
2013-04-13 19:29:00,34.7,29.1,29.84,NNE,25,3.0,13.0,80,0.01,,,0.28,meteohub,2013-04-13 23:29:00,
2013-04-13 19:34:00,34.5,28.9,29.84,SE,145,7.0,8.0,80,0.01,,,0.28,meteohub,2013-04-13 23:34:00,
2013-04-13 19:39:00,34.5,28.9,29.84,NW,316,2.0,8.0,80,0.01,,,0.28,meteohub,2013-04-13 23:39:00,
2013-04-13 19:44:00,34.5,28.9,29.84,WNW,282,2.0,10.0,80,0.01,,,0.28,meteohub,2013-04-13 23:44:00,
2013-04-13 19:49:00,34.5,29.3,29.84,WNW,300,1.0,10.0,81,0.00,,,0.28,meteohub,2013-04-13 23:49:00,
2013-04-13 19:54:00,34.5,29.3,29.84,WNW,283,2.0,6.0,81,0.00,,,0.28,meteohub,2013-04-13 23:54:00,
2013-04-13 19:59:00,34.5,29.7,29.85,WSW,238,1.0,9.0,82,0.00,,,0.28,meteohub,2013-04-13 23:59:00,
2013-04-13 20:04:00,34.5,29.7,29.85,West,266,0.0,9.0,82,0.00,,,0.28,meteohub,2013-04-14 00:04:00,
2013-04-13 20:09:00,34.5,29.3,29.85,West,278,1.0,9.0,81,0.00,,,0.00,meteohub,2013-04-14 00:09:00,
2013-04-13 20:14:00,34.3,29.5,29.85,WSW,241,3.0,8.0,82,0.00,,,0.00,meteohub,2013-04-14 00:14:00,
2013-04-13 20:19:00,34.2,29.3,29.86,WSW,254,1.0,11.0,82,0.00,,,0.00,meteohub,2013-04-14 00:19:00,
2013-04-13 20:24:00,34.0,29.3,29.86,WNW,282,1.0,11.0,83,0.00,,,0.00,meteohub,2013-04-14 00:24:00,
2013-04-13 20:29:00,34.0,29.3,29.86,WNW,289,0.0,8.0,83,0.00,,,0.00,meteohub,2013-04-14 00:29:00,
2013-04-13 20:34:00,34.2,29.8,29.86,WSW,253,3.0,6.0,84,0.00,,,0.00,meteohub,2013-04-14 00:34:00,
2013-04-13 20:39:00,34.0,30.0,29.86,SSW,205,1.0,5.0,85,0.00,,,0.00,meteohub,2013-04-14 00:39:00,
2013-04-13 20:44:00,33.4,30.2,29.87,SW,217,1.0,8.0,88,0.00,,,0.00,meteohub,2013-04-14 00:44:00,
2013-04-13 20:49:00,33.1,30.2,29.87,West,272,1.0,10.0,89,0.00,,,0.00,meteohub,2013-04-14 00:49:00,
2013-04-13 20:54:00,32.7,30.2,29.87,WSW,237,1.0,10.0,90,0.00,,,0.00,meteohub,2013-04-14 00:54:00,
2013-04-13 20:59:00,32.7,30.4,29.87,SW,228,2.0,10.0,91,0.00,,,0.00,meteohub,2013-04-14 00:59:00,
2013-04-13 21:04:00,32.7,30.4,29.88,WSW,237,2.0,7.0,91,0.00,,,0.00,meteohub,2013-04-14 01:04:00,
2013-04-13 21:10:00,32.9,30.4,29.88,WSW,244,1.0,7.0,90,0.00,,,0.00,meteohub,2013-04-14 01:10:00,
2013-04-13 21:15:00,32.9,30.4,29.88,WSW,254,2.0,6.0,90,0.00,,,0.00,meteohub,2013-04-14 01:15:00,
2013-04-13 21:20:00,33.1,30.2,29.88,WSW,245,2.0,6.0,89,0.00,,,0.00,meteohub,2013-04-14 01:20:00,
2013-04-13 21:25:00,33.3,30.4,29.88,SSW,209,7.0,7.0,89,0.00,,,0.00,meteohub,2013-04-14 01:25:00,
2013-04-13 21:30:00,33.1,30.2,29.89,WNW,299,1.0,7.0,89,0.00,,,0.00,meteohub,2013-04-14 01:30:00,
2013-04-13 21:35:00,33.1,30.2,29.89,SSW,207,0.0,8.0,89,0.00,,,0.00,meteohub,2013-04-14 01:35:00,
2013-04-13 21:40:00,33.1,30.4,29.89,WSW,251,1.0,8.0,90,0.00,,,0.00,meteohub,2013-04-14 01:40:00,
2013-04-13 21:45:00,32.9,30.4,29.89,WSW,237,0.0,8.0,90,0.00,,,0.00,meteohub,2013-04-14 01:45:00,
2013-04-13 21:50:00,32.9,30.4,29.89,SSW,209,0.0,7.0,90,0.00,,,0.00,meteohub,2013-04-14 01:50:00,
2013-04-13 21:55:00,32.9,30.4,29.89,SW,214,1.0,7.0,90,0.00,,,0.00,meteohub,2013-04-14 01:55:00,
2013-04-13 22:00:00,32.9,30.4,29.89,SSW,206,1.0,7.0,90,0.00,,,0.00,meteohub,2013-04-14 02:00:00,
2013-04-13 22:05:00,32.9,30.4,29.90,SE,131,1.0,5.0,90,0.00,,,0.00,meteohub,2013-04-14 02:05:00,
2013-04-13 22:10:00,32.7,30.2,29.90,SSE,159,3.0,5.0,90,0.00,,,0.00,meteohub,2013-04-14 02:10:00,
2013-04-13 22:15:00,32.7,30.2,29.90,ENE,70,0.0,6.0,90,0.00,,,0.00,meteohub,2013-04-14 02:15:00,
2013-04-13 22:20:00,32.7,30.2,29.90,SSE,150,2.0,6.0,90,0.00,,,0.00,meteohub,2013-04-14 02:20:00,
2013-04-13 22:25:00,32.7,30.4,29.90,SSW,207,1.0,4.0,91,0.00,,,0.00,meteohub,2013-04-14 02:25:00,
2013-04-13 22:30:00,32.7,30.2,29.90,WSW,241,3.0,3.0,90,0.00,,,0.00,meteohub,2013-04-14 02:30:00,
2013-04-13 22:35:00,32.7,30.2,29.90,SSW,195,1.0,3.0,90,0.00,,,0.00,meteohub,2013-04-14 02:35:00,
2013-04-13 22:40:00,32.7,30.4,29.90,SSW,206,1.0,3.0,91,0.00,,,0.00,meteohub,2013-04-14 02:40:00,
2013-04-13 22:45:00,32.5,30.2,29.91,SW,219,0.0,3.0,91,0.00,,,0.00,meteohub,2013-04-14 02:45:00,
2013-04-13 22:50:00,32.5,30.2,29.91,SSW,209,0.0,3.0,91,0.00,,,0.00,meteohub,2013-04-14 02:50:00,
2013-04-13 22:55:00,32.7,30.4,29.91,SW,235,2.0,3.0,91,0.00,,,0.00,meteohub,2013-04-14 02:55:00,
2013-04-13 23:00:00,32.7,30.4,29.91,North,8,0.0,3.0,91,0.00,,,0.00,meteohub,2013-04-14 03:00:00,
2013-04-13 23:05:00,32.7,30.4,29.91,WNW,290,3.0,3.0,91,0.00,,,0.00,meteohub,2013-04-14 03:05:00,
2013-04-13 23:10:00,32.4,29.8,29.91,WNW,285,3.0,9.0,90,0.00,,,0.00,meteohub,2013-04-14 03:10:00,
2013-04-13 23:16:00,32.2,29.3,29.91,NNW,330,3.0,9.0,89,0.00,,,0.00,meteohub,2013-04-14 03:16:00,
2013-04-13 23:21:00,32.0,29.5,29.91,WSW,251,2.0,9.0,90,0.00,,,0.00,meteohub,2013-04-14 03:21:00,
2013-04-13 23:26:00,31.8,29.3,29.91,West,264,0.0,8.0,90,0.00,,,0.00,meteohub,2013-04-14 03:26:00,
2013-04-13 23:31:00,31.8,29.3,29.91,NNW,328,0.0,5.0,90,0.00,,,0.00,meteohub,2013-04-14 03:31:00,
2013-04-13 23:36:00,31.8,29.3,29.91,NW,316,0.0,3.0,90,0.00,,,0.00,meteohub,2013-04-14 03:36:00,
2013-04-13 23:41:00,31.8,29.3,29.91,WSW,257,1.0,4.0,90,0.00,,,0.00,meteohub,2013-04-14 03:41:00,
2013-04-13 23:46:00,32.0,29.5,29.92,SW,224,1.0,4.0,90,0.00,,,0.00,meteohub,2013-04-14 03:46:00,
2013-04-13 23:51:00,32.2,29.7,29.92,SW,217,2.0,4.0,90,0.00,,,0.00,meteohub,2013-04-14 03:51:00,
2013-04-13 23:56:00,32.0,29.5,29.92,SSW,213,0.0,2.0,90,0.00,,,0.00,meteohub,2013-04-14 03:56:00,